Weather History for Buenos Aires, Argentina

Change the Weather History Date:

Saturday, November 10, 2012

  Actual Average Record
Temperature  
Mean Temperature 60 °F -  
Max Temperature 67 °F 78 °F 80 °F (2014)
Min Temperature 52 °F 63 °F 51 °F (2002)
Degree Days  
Heating Degree Days 6    
Growing Degree Days 10 (Base 50)    
Moisture  
Dew Point 50 °F    
Average Humidity 68    
Maximum Humidity 94    
Minimum Humidity 48    
Precipitation  
Precipitation 0.00 in 0.13 in - ()
Sea Level Pressure  
Sea Level Pressure 30.06 in    
Wind  
Wind Speed 17 mph ()    
Max Wind Speed 23 mph    
Max Gust Speed 34 mph    
Visibility 6.1 miles    
Events      
Averages and records for this station are not official NWS values.
T = Trace of Precipitation, MM = Missing Value Source: Averaged Metar Reports

Daily Weather History Graph

Daily Weather History Graph

Search for Another Location

Airport:

Trip Planner

Search our weather history database for the weather conditions in past years. The results will help you decide how hot, cold, wet, or windy it might be!

Date:

Astronomy

Nov. 10, 2012 Rise Set
Actual Time 5:43 AM ART 7:32 PM ART
Civil Twilight 5:16 AM ART 7:59 PM ART
Nautical Twilight 4:43 AM ART 8:32 PM ART
Astronomical Twilight 4:08 AM ART 9:08 PM ART
Moon 3:11 AM ART (11/10) 4:01 PM ART (11/10)
Length of Visible Light 14h 43m
Length of Day
13h 48m
Waning Crescent, 15% of the Moon is Illuminated
Nov 10
Waning Crescent
Nov 13
New
Nov 20
First Quarter
Nov 28
Full
Dec 6
Last Quarter

Hourly Weather History & Observations

Time (ART) Temp. Dew Point Humidity Pressure Visibility Wind Dir Wind Speed Gust Speed Precip Events Conditions
12:00 AM 58 °F 52 °F 75% 30.00 in 6 mi SSE 18.4 mph - -   Mostly Cloudy
12:00 AM 59.0 °F 51.8 °F 77% 30.01 in - SSE 18.4 mph 31.1 mph N/A   Clear
2:00 AM 57.2 °F 48.2 °F 72% 30.01 in - South 17.3 mph 31.1 mph N/A   Clear
3:00 AM 54 °F 47 °F 72% 30.01 in 6 mi South 17.3 mph - -   Mostly Cloudy
3:00 AM 53.6 °F 48.2 °F 82% 30.01 in - South 18.4 mph - N/A   Clear
4:00 AM 53.6 °F 44.6 °F 72% 30.01 in - South 17.3 mph - N/A   Clear
5:00 AM 53.6 °F 46.4 °F 77% 30.01 in - SSE 23.0 mph - N/A   Clear
6:00 AM 53 °F 46 °F 69% 30.06 in 6 mi South 15.0 mph - -   Scattered Clouds
6:00 AM 53.6 °F 46.4 °F 77% 30.06 in - South 15.0 mph 28.8 mph N/A   Clear
7:00 AM 50.0 °F 48.2 °F 94% 30.06 in - SSE 16.1 mph - N/A   Clear
8:00 AM 55.4 °F 48.2 °F 77% 30.06 in 6.2 mi SSE 19.6 mph - N/A   Mostly Cloudy
9:00 AM 58 °F 48 °F 61% 30.08 in 6 mi SSE 15.0 mph - -   Scattered Clouds
9:00 AM 57.2 °F 48.2 °F 72% 30.06 in 6.2 mi SSE 15.0 mph - N/A   Mostly Cloudy
9:17 AM 57.2 °F 48.2 °F 72% 30.06 in 6.2 mi SSE 21.9 mph 34.5 mph N/A   Mostly Cloudy
10:00 AM 60.8 °F 50.0 °F 68% 30.06 in 6.2 mi SSE 21.9 mph - N/A   Scattered Clouds
11:00 AM 62.6 °F 51.8 °F 68% 30.04 in 6.2 mi SSE 20.7 mph - N/A   Overcast
12:00 PM 64 °F 52 °F 56% 30.06 in 6 mi SE 20.7 mph - -   Overcast
12:00 PM 64.4 °F 51.8 °F 64% 30.04 in 6.2 mi SE 20.7 mph 32.2 mph N/A   Mostly Cloudy
1:00 PM 64.4 °F 51.8 °F 64% 30.06 in 6.2 mi SSE 23.0 mph - N/A   Mostly Cloudy
2:00 PM 64.4 °F 51.8 °F 64% 30.06 in 6.2 mi SE 20.7 mph - N/A   Mostly Cloudy
3:00 PM 66 °F 51 °F 49% 30.06 in 6 mi SE 23.0 mph - -   Overcast
3:00 PM 66.2 °F 51.8 °F 60% 30.04 in 6.2 mi SE 23.0 mph - N/A   Mostly Cloudy
4:00 PM 66.2 °F 53.6 °F 64% 30.04 in 6.2 mi SE 21.9 mph - N/A   Scattered Clouds
5:00 PM 66.2 °F 53.6 °F 64% 30.04 in 6.2 mi SE 23.0 mph - N/A   Scattered Clouds
6:00 PM 66 °F 51 °F 48% 30.07 in 6 mi SE 20.7 mph - -   Mostly Cloudy
6:00 PM 66.2 °F 51.8 °F 60% 30.06 in 6.2 mi SE 20.7 mph - N/A   Scattered Clouds
7:00 PM 64.4 °F 51.8 °F 64% 30.09 in 6.2 mi SE 17.3 mph - N/A   Scattered Clouds
8:00 PM 62.6 °F 50.0 °F 63% 30.12 in 6.2 mi South 17.3 mph - N/A   Mostly Cloudy
9:00 PM 62 °F 50 °F 56% 30.14 in 6 mi South 18.4 mph - -   Partly Cloudy
9:00 PM 60.8 °F 50.0 °F 68% 30.12 in 6.2 mi South 18.4 mph - N/A   Scattered Clouds
10:00 PM 62.6 °F 51.8 °F 68% 30.15 in - SSE 17.3 mph - N/A   Clear
11:00 PM 60.8 °F 51.8 °F 72% 30.12 in - SSE 18.4 mph - N/A   Clear